Flag for Russia Weather past 2 weeks in Kazan, Russia

34 °F

Partly sunny.

Feels Like: 24 °F
Forecast: 29 / 36 °F
Wind: 15 mph from North

Location: Kazan'

Current Time: Oct 7, 2015 at 9:36:51 AM

Latest Report: Oct 7, 2015 at 9:00 AM

Visibility: N/A

Pressure: 29.80 "Hg

Humidity: 70%

Dew point: 25 °F

Location of KazanLocation

Historic Weather in Kazan — Graph


Kazan temperature yesterday

Maximum temperature yesterday: 54 °F (at 12:00 AM)
Minimum temperature yesterday: 36 °F (at 9:30 PM)
Average temperature yesterday: 45 °F

Past Weeks' High & Low Weather Summary

High82 °F (Sep 27, 12:30 PM)100% (Sep 25, 5:30 AM)30.30 "Hg (Sep 25, 5:30 AM)
Low32 °F (Oct 7, 1:30 AM)28% (Sep 26, 2:30 PM)29.12 "Hg (Oct 3, 9:00 AM)
Average56 °F69%30.05 "Hg
* Reported Sep 22 8:00 AM — Oct 7 8:30 AM, Kazan, Weather by CustomWeather, © 2015

Note: Actual official high and low records may vary slightly from our data, if they occured in-between our weather recording intervals... More about our weather records


Kazan weather history for previous 24 hours

Time TempWeatherWind HumidityBarometerVisibility
8:30 AM
Wed, Oct 7
32 °FPartly sunny.15 mph75%29.80 "HgN/A
8:00 AM32 °FPartly sunny.13 mph75%29.80 "HgN/A
7:30 AM32 °FPartly sunny.15 mph75%29.80 "HgN/A
7:00 AM32 °FPartly sunny.13 mph75%29.80 "HgN/A
6:30 AM32 °FPassing clouds.13 mph75%29.80 "HgN/A
6:00 AM32 °FPassing clouds.13 mph75%29.80 "HgN/A
5:30 AM34 °FPassing clouds.15 mph70%29.80 "HgN/A
5:00 AM34 °FPassing clouds.15 mph81%29.80 "HgN/A
4:30 AM36 °FPassing clouds.13 mph81%29.80 "HgN/A
4:00 AM36 °FPassing clouds.13 mph81%29.80 "HgN/A
3:30 AM36 °FPassing clouds.10 mph87%29.77 "HgN/A
3:00 AM34 °FPassing clouds.10 mph93%29.77 "HgN/A
2:30 AM34 °FPassing clouds.8 mph87%29.80 "HgN/A
2:00 AM32 °FClear.8 mph93%29.80 "Hg10 mi
1:30 AM32 °FClear.8 mph93%29.80 "Hg10 mi
1:00 AM34 °FClear.10 mph87%29.80 "Hg10 mi
12:30 AM34 °FClear.10 mph87%29.80 "Hg10 mi
12:00 AM34 °FClear.10 mph87%29.80 "Hg10 mi
11:30 PM
Tue, Oct 6
36 °FClear.10 mph81%29.80 "Hg10 mi
11:00 PM36 °FClear.10 mph81%29.80 "Hg10 mi
10:30 PM36 °FClear.10 mph75%29.80 "Hg10 mi
10:00 PM37 °FClear.10 mph70%29.80 "Hg10 mi
9:30 PM36 °FClear.10 mph81%29.80 "Hg10 mi
9:00 PM37 °FClear.8 mph70%29.80 "Hg10 mi
8:30 PM37 °FClear.6 mph70%29.80 "Hg10 mi
8:00 PM37 °FClear.8 mph70%29.80 "Hg10 mi
7:30 PM37 °FClear.10 mph70%29.80 "Hg10 mi
7:00 PM39 °FClear.10 mph65%29.83 "Hg10 mi
6:30 PM39 °FClear.13 mph70%29.83 "Hg10 mi
6:00 PM39 °FSunny.13 mph70%29.80 "Hg10 mi
5:30 PM39 °FSunny.8 mph75%29.80 "Hg10 mi
5:00 PM39 °FSunny.10 mph81%29.80 "Hg10 mi
4:30 PM39 °FOvercast.13 mph81%29.80 "HgN/A
4:00 PM41 °FOvercast.13 mph81%29.80 "HgN/A
3:30 PM43 °FSunny.8 mph81%29.77 "Hg10 mi
3:00 PM41 °FLight rain. Overcast.6 mph93%29.77 "HgN/A
2:30 PM43 °FLight rain. Overcast.10 mph87%29.77 "HgN/A
2:00 PM43 °FLight rain. Overcast.8 mph87%29.77 "HgN/A
1:30 PM43 °FLight rain. Overcast.10 mph87%29.77 "HgN/A
1:00 PM45 °FLight rain. Overcast.6 mph87%29.77 "HgN/A
12:30 PM45 °FLight rain. Overcast.8 mph87%29.77 "HgN/A
12:00 PM46 °FLight rain. Overcast.8 mph87%29.77 "HgN/A
11:30 AM46 °FLight rain. Overcast.10 mph82%29.74 "HgN/A
11:00 AM48 °FLight rain. Overcast.8 mph82%29.74 "HgN/A
10:30 AM50 °FOvercast.8 mph76%29.74 "HgN/A
10:00 AM50 °FOvercast.6 mph76%29.74 "HgN/A
9:30 AM50 °FOvercast.8 mph76%29.74 "HgN/A
9:00 AM50 °FSunny.8 mph76%29.74 "Hg10 mi
Weather by CustomWeather, © 2015

See weather overviewHow to use our weather pages